Home   Weather   Yekaterinburg   Past weeks

Flag for Russia Past Weather in Yekaterinburg, Russia — Yesterday and Last 2 Weeks

Now
1 °F

Passing clouds.


Feels Like: 1 °F
Forecast: 4 / 8 °F
Wind: 1 mph from Southeast

Location: Ekaterinburg

Current Time: Dec 3, 2016 at 3:28:59 am

Latest Report: Dec 3, 2016 at 3:00 am


Visibility: N/A

Pressure: 30.21 "Hg

Humidity: 85%

Dew Point: -2 °F

Location of YekaterinburgLocation

Past Weather in Yekaterinburg — Graph

°F

Yekaterinburg Temperature Yesterday

Maximum temperature yesterday: 5 °F (at 7:30 pm)
Minimum temperature yesterday: -17 °F (at 7:30 am)
Average temperature yesterday: -3 °F

High & Low Weather Summary for the Past Weeks

 TemperatureHumidityPressure
High39 °F (Nov 29, 12:30 pm)100% (Nov 26, 4:00 pm)31.31 "Hg (Nov 26, 4:00 pm)
Low-29 °F (Nov 20, 4:30 am)42% (Nov 22, 4:30 pm)29.39 "Hg (Nov 27, 1:30 am)
Average13 °F78%30.19 "Hg
* Reported Nov 18 2:00 am — Dec 3 2:00 am, Yekaterinburg, Weather by CustomWeather, © 2016

Note: Actual official high and low records may vary slightly from our data, if they occured in-between our weather recording intervals... More about our weather records

Advertising

Yekaterinburg Weather History for the Previous 24 Hours

Scroll right to see more
 ConditionsComfort  
Time TempWeatherWind HumidityBarometerVisibility
2:00 am
Sat, Dec 3
3 °FClear.1 mph85%30.21 "Hg10 mi
1:30 am1 °FClear.1 mph92%30.21 "Hg10 mi
1:00 am0 °FClear.1 mph92%30.21 "Hg10 mi
12:30 am-2 °FClear.3 mph92%30.21 "Hg10 mi
12:00 am-2 °FClear.6 mph84%30.24 "Hg10 mi
11:30 pm
Fri, Dec 2
-2 °FClear.3 mph84%30.24 "Hg10 mi
11:00 pm0 °FClear.3 mph84%30.24 "Hg10 mi
10:00 pm0 °FClear.8 mph92%30.24 "Hg10 mi
9:30 pm1 °FClear.6 mph92%30.27 "Hg10 mi
9:00 pm1 °FClear.6 mph85%30.27 "Hg10 mi
8:30 pm3 °FClear.3 mph85%30.27 "Hg10 mi
8:00 pm3 °FClear.6 mph85%30.27 "Hg10 mi
7:30 pm5 °FClear.3 mph85%30.27 "Hg10 mi
7:00 pm1 °FPassing clouds.6 mph92%30.27 "HgN/A
6:30 pm0 °FPassing clouds.3 mph92%30.27 "HgN/A
6:00 pm0 °FClear.6 mph92%30.27 "Hg10 mi
5:30 pm0 °FClear.6 mph92%30.27 "Hg10 mi
5:00 pm1 °FClear.6 mph92%30.27 "Hg10 mi
4:30 pm3 °FClear.6 mph85%30.27 "Hg10 mi
4:00 pm3 °FSunny.8 mph85%30.27 "Hg10 mi
3:30 pm3 °FSunny.6 mph85%30.27 "Hg10 mi
3:00 pm3 °FSunny.6 mph85%30.27 "Hg10 mi
2:30 pm3 °FSunny.3 mph85%30.27 "Hg10 mi
2:00 pm3 °FSunny.3 mph85%30.27 "Hg10 mi
1:30 pm3 °FSunny.3 mph85%30.27 "Hg10 mi
1:00 pm1 °FSunny.3 mph85%30.27 "Hg10 mi
12:30 pm0 °FSunny.3 mph84%30.27 "Hg10 mi
12:00 pm-2 °FSunny.1 mph84%30.27 "Hg10 mi
11:30 am-6 °FSunny.1 mph84%30.27 "Hg10 mi
11:00 am-9 °FSunny.1 mph84%30.30 "Hg10 mi
10:30 am-11 °FSunny.3 mph84%30.27 "Hg10 mi
10:00 am-11 °FSunny.1 mph84%30.27 "Hg10 mi
9:30 am-15 °FClear.3 mph76%30.27 "Hg6 mi
9:00 am-15 °FFog.1 mph76%30.27 "Hg2 mi
8:30 am-11 °FFog.1 mph76%30.24 "HgN/A
8:00 am-11 °FFog.1 mph76%30.24 "Hg3 mi
7:30 am-17 °FIce fog.3 mph83%30.24 "Hg6 mi
7:00 am-15 °FPassing clouds.1 mph83%30.24 "Hg6 mi
6:30 am-8 °FFog.1 mph84%30.24 "Hg6 mi
6:00 am-13 °FPassing clouds.No wind76%30.24 "HgN/A
5:30 am-13 °FPassing clouds.1 mph83%30.21 "HgN/A
5:00 am-9 °FPassing clouds.1 mph84%30.21 "HgN/A
4:30 am-9 °FLight snow. Passing clouds.1 mph84%30.21 "Hg5 mi
4:00 am-9 °FLight snow. Passing clouds.1 mph84%30.21 "Hg4 mi
3:30 am-6 °FPassing clouds.1 mph92%30.21 "Hg4 mi
3:00 am-4 °FPassing clouds.3 mph92%30.21 "Hg4 mi
Weather by CustomWeather, © 2016

See weather overviewHow to use our weather pages